Hourly Data Report for October 03, 2017

All times are specified in Local Standard Time (LST). Add 1 hour to adjust for Daylight Saving Time where and when it is observed.

POINT ATKINSON
BRITISH COLUMBIA

49°19'49.300" N
123°15'53.000" W
14.00 m
1106200
71037
WSB

Download Data

Hourly Data (October 2017)
Hourly Data Report for October 3, 2017
Temp Definition
°C
Dew Point Temp Definition
°C
Rel Hum Definition
%
Wind Dir Definition
10's deg

Wind Spd Definition
km/h
Visibility Definition
km
Stn Press Definition
kPa
Hmdx Definition


Wind Chill Definition


Weather Definition


TIME
00:00 12.1 3.9 57 8 5   102.27     LegendNANA
01:00 11.7 3.5 57 8 6   102.29     LegendNANA
02:00 11.4 4.4 62 9 5   102.31     LegendNANA
03:00 11.3 4.3 62 6 4   102.32     LegendNANA
04:00 11.5 2.3 53 9 2   102.35     LegendNANA
05:00 10.8 2.3 56 6 2   102.38     LegendNANA
06:00 10.4 3.9 64 8 5   102.38     LegendNANA
07:00 11.3 4.4 63 9 7   102.39     LegendNANA
08:00 12.1 5.5 64 9 6   102.43     LegendNANA
09:00 11.9 5.2 63 9 7   102.48     LegendNANA
10:00 12.8 3.6 53 10 6   102.48     LegendNANA
11:00 13.8 2.2 45 28 3   102.43     LegendNANA
12:00 13.0 7.2 68 29 13   102.38     LegendNANA
13:00 12.9 8.3 73 28 18   102.30     LegendNANA
14:00 13.3 8.6 73 28 16   102.26     LegendNANA
15:00 14.2 7.0 62 28 8   102.21     LegendNANA
16:00 14.5 6.4 58 28 14   102.13     LegendNANA
17:00 13.7 9.1 74 28 16   102.08     LegendNANA
18:00 13.4 6.6 63 5 2   102.07     LegendNANA
19:00 13.4 5.3 58   0   102.06     LegendNANA
20:00 13.5 4.8 56 32 4   102.06     LegendNANA
21:00 13.1 5.7 61 7 3   102.06     LegendNANA
22:00 12.4 6.7 68 7 2   102.05     LegendNANA
23:00 11.6 6.6 72 8 5   102.05     LegendNANA

Notes on Data Quality.

Legend

  • E = Estimated
  • M = Missing
  • NA = Not Available
  • ‡ = Partner data that is not subject to review by the National Climate Archives
Date modified: